Flag for Canada Weather past 2 weeks in Regina, Saskatchewan, Canada

Now
52 °F

Passing clouds.


Feels Like: 49 °F
Forecast: 48 / 63 °F
Wind: 8 mph from Southwest

Location: Regina Weather Station

Current Time: Sep 19, 2014 at 11:04:17 PM

Latest Report: Sep 19, 2014 at 10:00 PM


Visibility: 15 mi

Pressure: 29.80 "Hg

Humidity: 88%

Dew point: 48 °F

Location of ReginaLocation

Historic Weather in Regina — Graph

°F

Regina temperature yesterday

Maximum temperature yesterday: 79 °F (at 4:00 PM)
Minimum temperature yesterday: 46 °F (at 6:00 AM)
Average temperature yesterday: 61 °F

Past Weeks' High & Low Weather Summary

 TemperatureHumidityPressure
High79 °F (Sep 7, 2:00 PM)100% (Sep 4, 11:00 PM)30.62 "Hg (Sep 4, 11:00 PM)
Low28 °F (Sep 12, 3:00 AM)31% (Sep 15, 4:00 PM)29.51 "Hg (Sep 18, 6:00 PM)
Average51 °F74%30.08 "Hg
* Reported Sep 4 10:00 PM — Sep 19 10:00 PM, Regina, Weather by CustomWeather, © 2014

Note: Actual official high and low records may vary slightly from our data, if they occured in-between our weather recording intervals... More about our weather records

Advertising

Regina weather history for previous 24 hours

 ConditionsComfort  
Time TempWeatherWind HumidityBarometerVisibility
10:00 PM
Sep 19
52 °FPassing clouds.8 mph88%29.80 "Hg15 mi
9:00 PM54 °FPassing clouds.8 mph82%29.79 "Hg15 mi
8:00 PM54 °FPassing clouds.8 mph88%29.78 "Hg15 mi
7:00 PM61 °FPassing clouds.7 mph72%29.76 "Hg15 mi
6:00 PM66 °FPassing clouds.9 mph60%29.74 "Hg15 mi
5:00 PM68 °FScattered clouds.12 mph56%29.74 "Hg15 mi
4:00 PM66 °FPartly sunny.13 mph64%29.74 "Hg15 mi
3:00 PM66 °FPartly sunny.18 mph60%29.71 "Hg15 mi
2:00 PM70 °FBroken clouds.12 mph53%29.70 "Hg15 mi
1:00 PM64 °FPartly sunny.9 mph73%29.69 "Hg15 mi
12:00 PM64 °FBroken clouds.12 mph73%29.68 "Hg15 mi
11:00 AM63 °FPartly sunny.9 mph77%29.67 "Hg15 mi
10:00 AM59 °FPartly sunny.10 mph82%29.65 "Hg15 mi
9:00 AM57 °FPartly sunny.10 mph88%29.62 "Hg15 mi
8:00 AM55 °FBroken clouds.8 mph94%29.58 "Hg15 mi
7:00 AM54 °FPartly sunny.9 mph94%29.56 "Hg15 mi
6:00 AM54 °FPassing clouds.10 mph94%29.55 "Hg15 mi
5:00 AM54 °FPassing clouds.9 mph94%29.54 "Hg15 mi
4:00 AM52 °FMostly cloudy.3 mph94%29.52 "Hg15 mi
3:00 AM54 °FPassing clouds.2 mph94%29.51 "Hg15 mi
2:00 AM55 °FPassing clouds.3 mph94%29.53 "Hg15 mi
1:00 AM57 °FPassing clouds.7 mph88%29.52 "Hg15 mi
12:00 AM59 °FPassing clouds.2 mph82%29.53 "Hg15 mi
11:00 PM
Sep 18
61 °FPassing clouds.8 mph77%29.55 "Hg15 mi
Weather by CustomWeather, © 2014

See weather overviewHow to use our weather pages